Location: Hilton Head Island
(32.2163°N, 80.7526°W)
Time: 13:03:20
(UTC-05:00)

Vanguard 2 - Pass Details

Date: 21 February 2026
Orbit: 553 x 2896 km, 32.9° (Epoch: 6 March)

Event Time Altitude Azimuth Distance (km) Brightness Sun altitude
Exits shadow 06:05:02 15° 261° (W) 2,500 9.5 -12.2°
Maximum altitude 06:10:33 89° 176° (S) 773 7.5 -11.0°
Drops below altitude 10° 06:15:00 10° 82° (E) 1,992 11.1 -10.1°
Sets 06:16:59 0° 83° (E) 2,798 12.3 -9.7°
